Hourly Data Report for September 02, 2017

All times are specified in Local Standard Time (LST). Add 1 hour to adjust for Daylight Saving Time where and when it is observed.

KITCHENER/WATERLOO
ONTARIO

43°27'39.000" N
80°22'43.000" W
321.60 m
6144239
71368
YKF

Download Data

Hourly Data (September 2017)
Hourly Data Report for September 2, 2017
Temp Definition
°C
Dew Point Temp Definition
°C
Rel Hum Definition
%
Wind Dir Definition
10's deg

Wind Spd Definition
km/h
Visibility Definition
km
Stn Press Definition
kPa
Hmdx Definition


Wind Chill Definition


Weather Definition


TIME
00:00 Legend Double Dagger 7.1 6.5 96   0 16.1 98.50     LegendNANA
01:00 Legend Double Dagger 5.0 4.7 98 3 5 16.1 98.47     LegendNANA
02:00 Legend Double Dagger 4.9 4.5 97 4 5 16.1 98.41     LegendNANA
03:00 Legend Double Dagger 4.6 4.0 96 5 5 16.1 98.35     LegendNANA
04:00 Legend Double Dagger 4.9 4.3 96 6 9 16.1 98.29     LegendNANA
05:00 Legend Double Dagger 5.2 4.8 97 7 8 16.1 98.30     LegendNANA
06:00 Legend Double Dagger 6.0 5.6 97 4 5 16.1 98.30     LegendNANA
07:00 Legend Double Dagger 7.7 7.4 98 6 4 16.1 98.31     LegendNANA
08:00 Legend Double Dagger 12.0 9.1 83 11 9 16.1 98.28     LegendNANA
09:00 Legend Double Dagger 14.7 7.6 62 9 24 16.1 98.22     LegendNANA
10:00 Legend Double Dagger 16.9 8.2 56 8 30 16.1 98.20     LegendNANA
11:00 Legend Double Dagger 18.1 7.9 51 8 26 16.1 98.13     LegendNANA
12:00 Legend Double Dagger 19.5 6.5 42 7 30 16.1 98.05     LegendNANA
13:00 Legend Double Dagger 19.6 7.4 45 9 22 16.1 97.99     LegendNANA
14:00 Legend Double Dagger 20.3 7.7 44 12 28 16.1 97.95     LegendNANA
15:00 Legend Double Dagger 18.1 7.6 50 11 22 16.1 97.89     LegendNANA
16:00 Legend Double Dagger 16.7 9.4 62 11 18 16.1 97.84     LegendNANA
17:00 Legend Double Dagger 15.3 10.5 73 8 15 16.1 97.81     LegendNANA
18:00 Legend Double Dagger 14.2 11.9 86 7 8 16.1 97.79     LegendNANA
19:00 Legend Double Dagger 14.7 11.7 82 10 11 16.1 97.74     LegendNANA
20:00 Legend Double Dagger 14.3 12.4 88 15 13 16.1 97.75     LegendNANA
21:00 Legend Double Dagger 13.7 12.1 90 13 11 16.1 97.70     LegendNANA
22:00 Legend Double Dagger 13.7 11.9 89 13 13 16.1 97.63     LegendNANA
23:00 Legend Double Dagger 13.8 12.4 91 13 15 16.1 97.57     LegendNANA

Notes on Data Quality.

Legend

  • E = Estimated
  • M = Missing
  • NA = Not Available
  • ‡ = Partner data that is not subject to review by the National Climate Archives
Date modified: